{"data":{"norad_id":52641,"epoch":"2026-09-19T21:57:08.555040Z","epoch_age_seconds":116984,"freshness":"FRESH","line1":"1 52641U 22052AV  26262.91468235  .00000116  00000+0  15517-4 0  9995","line2":"2 52641  53.1593  93.6312 0001122  95.5115 264.6014 15.31698229240647","mean_motion":15.31698229,"eccentricity":0.0001122,"inclination_deg":53.1593,"raan_deg":93.6312,"arg_perigee_deg":95.5115,"mean_anomaly_deg":264.6014,"bstar":1.5517e-5,"rev_number":24064,"period_min":94.013296662237,"perigee_km":469.97682989838,"apogee_km":471.51371908078,"semimajor_km":6848.8822744896,"source":"CELESTRAK","updated_at":"2026-09-20T09:00:40.097971Z"}}